Year,Month,Day,Hour,Minute,Value (Times are PST for windspeed in km/hr)
2021,04,11,00,00,7.10
2021,04,11,00,01,7.10
2021,04,11,00,02,5.70
2021,04,11,00,03,3.50
2021,04,11,00,04,3.10
2021,04,11,00,05,3.90
2021,04,11,00,06,7.50
2021,04,11,00,07,6.50
2021,04,11,00,08,4.00
2021,04,11,00,09,2.80
2021,04,11,00,10,2.90
2021,04,11,00,11,5.70
2021,04,11,00,12,4.40
2021,04,11,00,13,5.40
2021,04,11,00,14,4.80
2021,04,11,00,15,4.10
2021,04,11,00,16,4.10
2021,04,11,00,17,7.30
2021,04,11,00,18,6.40
2021,04,11,00,19,6.20
2021,04,11,00,20,12.40
2021,04,11,00,21,6.50
2021,04,11,00,22,6.50
2021,04,11,00,23,7.20
2021,04,11,00,24,9.10
2021,04,11,00,25,4.30
2021,04,11,00,26,5.80
2021,04,11,00,27,4.20
2021,04,11,00,28,8.20
2021,04,11,00,29,14.70
2021,04,11,00,30,10.00
2021,04,11,00,31,7.90
2021,04,11,00,32,7.60
2021,04,11,00,33,12.60
2021,04,11,00,34,7.30
2021,04,11,00,35,10.50
2021,04,11,00,36,12.80
2021,04,11,00,37,6.30
2021,04,11,00,38,8.60
2021,04,11,00,39,11.50
2021,04,11,00,40,16.50
2021,04,11,00,41,12.20
2021,04,11,00,42,6.70
2021,04,11,00,43,7.10
2021,04,11,00,44,8.80
2021,04,11,00,45,11.30
2021,04,11,00,46,11.60
2021,04,11,00,47,7.00
2021,04,11,00,48,5.90
2021,04,11,00,49,8.40
2021,04,11,00,50,7.50
2021,04,11,00,51,7.50
2021,04,11,00,52,7.90
2021,04,11,00,53,9.40
2021,04,11,00,54,12.30
2021,04,11,00,55,6.70
2021,04,11,00,56,9.70
2021,04,11,00,57,14.30
2021,04,11,00,58,11.90
2021,04,11,00,59,6.70
2021,04,11,01,00,9.70
2021,04,11,01,01,10.50
2021,04,11,01,02,12.10
2021,04,11,01,03,8.20
2021,04,11,01,04,5.50
2021,04,11,01,05,3.90
2021,04,11,01,06,6.50
2021,04,11,01,07,4.30
2021,04,11,01,08,6.80
2021,04,11,01,09,12.10
2021,04,11,01,10,8.40
2021,04,11,01,11,6.10
2021,04,11,01,12,6.90
2021,04,11,01,13,7.70
2021,04,11,01,14,9.40
2021,04,11,01,15,12.50
2021,04,11,01,16,7.90
2021,04,11,01,17,7.70
2021,04,11,01,18,15.00
2021,04,11,01,19,9.20
2021,04,11,01,20,11.50
2021,04,11,01,21,11.90
2021,04,11,01,22,9.00
2021,04,11,01,23,4.80
2021,04,11,01,24,8.50
2021,04,11,01,25,6.00
2021,04,11,01,26,4.90
2021,04,11,01,27,5.40
2021,04,11,01,28,5.40
2021,04,11,01,29,8.50
2021,04,11,01,30,11.60
2021,04,11,01,31,7.20
2021,04,11,01,32,9.60
2021,04,11,01,33,6.90
2021,04,11,01,34,8.20
2021,04,11,01,35,9.60
2021,04,11,01,36,6.90
2021,04,11,01,37,7.30
2021,04,11,01,38,5.00
2021,04,11,01,39,4.60
2021,04,11,01,40,5.40
2021,04,11,01,41,5.10
2021,04,11,01,42,4.60
2021,04,11,01,43,9.20
2021,04,11,01,44,6.60
2021,04,11,01,45,6.40
2021,04,11,01,46,9.80
2021,04,11,01,47,7.50
2021,04,11,01,48,7.20
2021,04,11,01,49,7.30
2021,04,11,01,50,10.10
2021,04,11,01,51,10.30
2021,04,11,01,52,8.50
2021,04,11,01,53,10.30
2021,04,11,01,54,10.60
2021,04,11,01,55,10.10
2021,04,11,01,56,9.20
2021,04,11,01,57,8.00
2021,04,11,01,58,6.60
2021,04,11,01,59,11.00
2021,04,11,02,00,6.40
2021,04,11,02,01,7.60
2021,04,11,02,02,7.80
2021,04,11,02,03,9.70
2021,04,11,02,04,9.60
2021,04,11,02,05,7.20
2021,04,11,02,06,7.90
2021,04,11,02,07,8.40
2021,04,11,02,08,9.50
2021,04,11,02,09,7.30
2021,04,11,02,10,7.90
2021,04,11,02,11,6.90
2021,04,11,02,12,6.10
2021,04,11,02,13,8.00
2021,04,11,02,14,6.10
2021,04,11,02,15,6.30
2021,04,11,02,16,7.20
2021,04,11,02,17,6.80
2021,04,11,02,18,7.40
2021,04,11,02,19,7.30
2021,04,11,02,20,7.00
2021,04,11,02,21,7.50
2021,04,11,02,22,7.90
2021,04,11,02,23,6.90
2021,04,11,02,24,8.10
2021,04,11,02,25,9.20
2021,04,11,02,26,5.80
2021,04,11,02,27,6.30
2021,04,11,02,28,8.90
2021,04,11,02,29,6.80
2021,04,11,02,30,8.50
2021,04,11,02,31,6.70
2021,04,11,02,32,9.00
2021,04,11,02,33,8.60
2021,04,11,02,34,6.30
2021,04,11,02,35,5.50
2021,04,11,02,36,4.90
2021,04,11,02,37,4.20
2021,04,11,02,38,6.00
2021,04,11,02,39,5.80
2021,04,11,02,40,4.70
2021,04,11,02,41,5.50
2021,04,11,02,42,5.80
2021,04,11,02,43,5.50
2021,04,11,02,44,5.10
2021,04,11,02,45,4.20
2021,04,11,02,46,6.60
2021,04,11,02,47,7.10
2021,04,11,02,48,6.90
2021,04,11,02,49,6.60
2021,04,11,02,50,8.10
2021,04,11,02,51,8.50
2021,04,11,02,52,7.50
2021,04,11,02,53,7.10
2021,04,11,02,54,7.60
2021,04,11,02,55,5.90
2021,04,11,02,56,8.00
2021,04,11,02,57,9.20
2021,04,11,02,58,9.20
2021,04,11,02,59,10.00
2021,04,11,03,00,8.10
2021,04,11,03,01,8.20
2021,04,11,03,02,7.50
2021,04,11,03,03,8.30
2021,04,11,03,04,7.20
2021,04,11,03,05,9.90
2021,04,11,03,06,8.80
2021,04,11,03,07,7.80
2021,04,11,03,08,7.60
2021,04,11,03,09,7.90
2021,04,11,03,10,9.50
2021,04,11,03,11,8.80
2021,04,11,03,12,9.80
2021,04,11,03,13,9.70
2021,04,11,03,14,9.00
2021,04,11,03,15,9.20
2021,04,11,03,16,6.80
2021,04,11,03,17,5.30
2021,04,11,03,18,10.00
2021,04,11,03,19,9.60
2021,04,11,03,20,6.50
2021,04,11,03,21,8.00
2021,04,11,03,22,8.00
2021,04,11,03,23,7.00
2021,04,11,03,24,8.00
2021,04,11,03,25,7.60
2021,04,11,03,26,5.80
2021,04,11,03,27,8.10
2021,04,11,03,28,9.90
2021,04,11,03,29,10.10
2021,04,11,03,30,8.60
2021,04,11,03,31,10.30
2021,04,11,03,32,9.50
2021,04,11,03,33,7.60
2021,04,11,03,34,8.90
2021,04,11,03,35,10.30
2021,04,11,03,36,10.00
2021,04,11,03,37,10.20
2021,04,11,03,38,10.80
2021,04,11,03,39,9.30
2021,04,11,03,40,7.50
2021,04,11,03,41,11.00
2021,04,11,03,42,10.30
2021,04,11,03,43,10.00
2021,04,11,03,44,8.80
2021,04,11,03,45,8.10
2021,04,11,03,46,7.70
2021,04,11,03,47,9.60
2021,04,11,03,48,9.40
2021,04,11,03,49,9.50
2021,04,11,03,50,10.00
2021,04,11,03,51,9.90
2021,04,11,03,52,9.10
2021,04,11,03,53,9.40
2021,04,11,03,54,10.40
2021,04,11,03,55,9.50
2021,04,11,03,56,8.10
2021,04,11,03,57,10.90
2021,04,11,03,58,9.10
2021,04,11,03,59,9.70
2021,04,11,04,00,9.40
2021,04,11,04,01,10.50
2021,04,11,04,02,11.70
2021,04,11,04,03,12.00
2021,04,11,04,04,10.70
2021,04,11,04,05,9.30
2021,04,11,04,06,11.70
2021,04,11,04,07,10.90
2021,04,11,04,08,8.50
2021,04,11,04,09,12.70
2021,04,11,04,10,12.50
2021,04,11,04,11,11.50
2021,04,11,04,12,11.00
2021,04,11,04,13,12.40
2021,04,11,04,14,10.40
2021,04,11,04,15,14.10
2021,04,11,04,16,11.70
2021,04,11,04,17,13.20
2021,04,11,04,18,14.20
2021,04,11,04,19,12.30
2021,04,11,04,20,12.50
2021,04,11,04,21,14.00
2021,04,11,04,22,10.90
2021,04,11,04,23,12.60
2021,04,11,04,24,9.80
2021,04,11,04,25,10.60
2021,04,11,04,26,9.90
2021,04,11,04,27,10.70
2021,04,11,04,28,15.30
2021,04,11,04,29,10.20
2021,04,11,04,30,7.80
2021,04,11,04,31,9.30
2021,04,11,04,32,9.80
2021,04,11,04,33,10.10
2021,04,11,04,34,7.50
2021,04,11,04,35,7.30
2021,04,11,04,36,8.60
2021,04,11,04,37,9.90
2021,04,11,04,38,9.50
2021,04,11,04,39,10.50
2021,04,11,04,40,10.40
2021,04,11,04,41,8.90
2021,04,11,04,42,8.60
2021,04,11,04,43,10.00
2021,04,11,04,44,9.50
2021,04,11,04,45,10.30
2021,04,11,04,46,11.10
2021,04,11,04,47,11.00
2021,04,11,04,48,12.20
2021,04,11,04,49,11.40
2021,04,11,04,50,12.80
2021,04,11,04,51,11.00
2021,04,11,04,52,12.80
2021,04,11,04,53,9.40
2021,04,11,04,54,11.20
2021,04,11,04,55,8.40
2021,04,11,04,56,8.90
2021,04,11,04,57,10.40
2021,04,11,04,58,12.80
2021,04,11,04,59,9.40
2021,04,11,05,00,10.20
2021,04,11,05,01,9.90
2021,04,11,05,02,11.80
2021,04,11,05,03,10.80
2021,04,11,05,04,8.40
2021,04,11,05,05,10.10
2021,04,11,05,06,12.50
2021,04,11,05,07,14.10
2021,04,11,05,08,7.60
2021,04,11,05,09,11.00
2021,04,11,05,10,10.30
2021,04,11,05,11,9.80
2021,04,11,05,12,8.90
2021,04,11,05,13,8.20
2021,04,11,05,14,6.80
2021,04,11,05,15,5.50
2021,04,11,05,16,4.40
2021,04,11,05,17,5.30
2021,04,11,05,18,6.60
2021,04,11,05,19,5.10
2021,04,11,05,20,3.50
2021,04,11,05,21,4.50
2021,04,11,05,22,6.60
2021,04,11,05,23,5.60
2021,04,11,05,24,4.60
2021,04,11,05,25,4.50
2021,04,11,05,26,4.10
2021,04,11,05,27,4.80
2021,04,11,05,28,6.50
2021,04,11,05,29,7.50
2021,04,11,05,30,7.60
2021,04,11,05,31,7.60
2021,04,11,05,32,7.50
2021,04,11,05,33,7.70
2021,04,11,05,34,8.30
2021,04,11,05,35,8.90
2021,04,11,05,36,9.80
2021,04,11,05,37,8.40
2021,04,11,05,38,9.20
2021,04,11,05,39,8.40
2021,04,11,05,40,6.40
2021,04,11,05,41,6.90
2021,04,11,05,42,8.70
2021,04,11,05,43,6.30
2021,04,11,05,44,7.80
2021,04,11,05,45,6.60
2021,04,11,05,46,10.50
2021,04,11,05,47,9.00
2021,04,11,05,48,9.20
2021,04,11,05,49,6.60
2021,04,11,05,50,8.40
2021,04,11,05,51,8.30
2021,04,11,05,52,10.90
2021,04,11,05,53,7.90
2021,04,11,05,54,7.80
2021,04,11,05,55,7.90
2021,04,11,05,56,7.90
2021,04,11,05,57,6.80
2021,04,11,05,58,8.50
2021,04,11,05,59,9.30
2021,04,11,06,00,9.30
2021,04,11,06,01,7.60
2021,04,11,06,02,6.90
2021,04,11,06,03,7.20
2021,04,11,06,04,6.70
2021,04,11,06,05,7.60
2021,04,11,06,06,6.60
2021,04,11,06,07,9.00
2021,04,11,06,08,9.40
2021,04,11,06,09,8.80
2021,04,11,06,10,6.80
2021,04,11,06,11,5.80
2021,04,11,06,12,6.40
2021,04,11,06,13,6.70
2021,04,11,06,14,4.50
2021,04,11,06,15,6.70
2021,04,11,06,16,7.20
2021,04,11,06,17,8.70
2021,04,11,06,18,6.80
2021,04,11,06,19,8.20
2021,04,11,06,20,7.20
2021,04,11,06,21,6.80
2021,04,11,06,22,6.80
2021,04,11,06,23,4.90
2021,04,11,06,24,8.30
2021,04,11,06,25,7.50
2021,04,11,06,26,7.80
2021,04,11,06,27,8.70
2021,04,11,06,28,6.50
2021,04,11,06,29,5.50
2021,04,11,06,30,6.70
2021,04,11,06,31,5.60
2021,04,11,06,32,7.10
2021,04,11,06,33,6.10
2021,04,11,06,34,6.30
2021,04,11,06,35,4.70
2021,04,11,06,36,5.00
2021,04,11,06,37,7.60
2021,04,11,06,38,7.40
2021,04,11,06,39,5.70
2021,04,11,06,40,6.90
2021,04,11,06,41,6.50
2021,04,11,06,42,7.10
2021,04,11,06,43,5.00
2021,04,11,06,44,4.50
2021,04,11,06,45,3.50
2021,04,11,06,46,3.70
2021,04,11,06,47,5.20
2021,04,11,06,48,6.70
2021,04,11,06,49,5.20
2021,04,11,06,50,3.70
2021,04,11,06,51,3.90
2021,04,11,06,52,5.00
2021,04,11,06,53,7.30
2021,04,11,06,54,5.50
2021,04,11,06,55,6.30
2021,04,11,06,56,5.40
2021,04,11,06,57,6.30
2021,04,11,06,58,6.60
2021,04,11,06,59,7.50
2021,04,11,07,00,6.50
2021,04,11,07,01,7.50
2021,04,11,07,02,7.20
2021,04,11,07,03,6.00
2021,04,11,07,04,6.00
2021,04,11,07,05,4.50
2021,04,11,07,06,4.80
2021,04,11,07,07,4.60
2021,04,11,07,08,3.20
2021,04,11,07,09,5.40
2021,04,11,07,10,4.70
2021,04,11,07,11,4.50
2021,04,11,07,12,5.10
2021,04,11,07,13,4.10
2021,04,11,07,14,4.10
2021,04,11,07,15,3.90
2021,04,11,07,16,5.00
2021,04,11,07,17,4.20
2021,04,11,07,18,3.50
2021,04,11,07,19,4.50
2021,04,11,07,20,3.00
2021,04,11,07,21,4.40
2021,04,11,07,22,4.70
2021,04,11,07,23,5.40
2021,04,11,07,24,6.40
2021,04,11,07,25,6.90
2021,04,11,07,26,6.90
2021,04,11,07,27,5.60
2021,04,11,07,28,5.40
2021,04,11,07,29,5.70
2021,04,11,07,30,4.00
2021,04,11,07,31,6.00
2021,04,11,07,32,5.40
2021,04,11,07,33,5.20
2021,04,11,07,34,5.10
2021,04,11,07,35,5.60
2021,04,11,07,36,7.30
2021,04,11,07,37,4.80
2021,04,11,07,38,3.90
2021,04,11,07,39,4.30
2021,04,11,07,40,6.30
2021,04,11,07,41,4.80
2021,04,11,07,42,2.70
2021,04,11,07,43,4.20
2021,04,11,07,44,5.10
2021,04,11,07,45,3.00
2021,04,11,07,46,1.90
2021,04,11,07,47,3.20
2021,04,11,07,48,4.50
2021,04,11,07,49,5.50
2021,04,11,07,50,5.60
2021,04,11,07,51,2.70
2021,04,11,07,52,1.50
2021,04,11,07,53,1.30
2021,04,11,07,54,0.60
2021,04,11,07,55,2.40
2021,04,11,07,56,3.70
2021,04,11,07,57,3.00
2021,04,11,07,58,3.20
2021,04,11,07,59,4.60
2021,04,11,08,00,2.40
2021,04,11,08,01,2.00
2021,04,11,08,02,4.50
2021,04,11,08,03,5.40
2021,04,11,08,04,4.00
2021,04,11,08,05,4.50
2021,04,11,08,06,3.00
2021,04,11,08,07,2.70
2021,04,11,08,08,3.10
2021,04,11,08,09,3.40
2021,04,11,08,10,2.50
2021,04,11,08,11,2.20
2021,04,11,08,12,2.70
2021,04,11,08,13,3.20
2021,04,11,08,14,2.30
2021,04,11,08,15,6.40
2021,04,11,08,16,6.70
2021,04,11,08,17,5.20
2021,04,11,08,18,9.10
2021,04,11,08,19,7.40
2021,04,11,08,20,5.10
2021,04,11,08,21,5.80
2021,04,11,08,22,8.40
2021,04,11,08,23,7.30
2021,04,11,08,24,8.90
2021,04,11,08,25,7.80
2021,04,11,08,26,6.30
2021,04,11,08,27,5.20
2021,04,11,08,28,3.50
2021,04,11,08,29,3.10
2021,04,11,08,30,5.30
2021,04,11,08,31,6.40
2021,04,11,08,32,5.90
2021,04,11,08,33,4.90
2021,04,11,08,34,6.20
2021,04,11,08,35,5.50
2021,04,11,08,36,6.10
2021,04,11,08,37,6.70
2021,04,11,08,38,3.80
2021,04,11,08,39,3.30
2021,04,11,08,40,5.50
2021,04,11,08,41,3.80
2021,04,11,08,42,4.10
2021,04,11,08,43,3.30
2021,04,11,08,44,3.00
2021,04,11,08,45,6.40
2021,04,11,08,46,4.20
2021,04,11,08,47,3.90
2021,04,11,08,48,3.70
2021,04,11,08,49,1.30
2021,04,11,08,50,2.60
2021,04,11,08,51,4.00
2021,04,11,08,52,6.90
2021,04,11,08,53,8.40
2021,04,11,08,54,6.30
2021,04,11,08,55,7.60
2021,04,11,08,56,6.80
2021,04,11,08,57,6.10
2021,04,11,08,58,5.80
2021,04,11,08,59,4.50
2021,04,11,09,00,9.20
2021,04,11,09,01,8.20
2021,04,11,09,02,3.00
2021,04,11,09,03,3.10
2021,04,11,09,04,5.80
2021,04,11,09,05,5.10
2021,04,11,09,06,6.70
2021,04,11,09,07,9.00
2021,04,11,09,08,7.20
2021,04,11,09,09,9.40
2021,04,11,09,10,8.80
2021,04,11,09,11,7.70
2021,04,11,09,12,13.10
2021,04,11,09,13,10.30
2021,04,11,09,14,13.60
2021,04,11,09,15,15.30
2021,04,11,09,16,12.00
2021,04,11,09,17,7.80
2021,04,11,09,18,4.00
2021,04,11,09,19,3.90
2021,04,11,09,20,4.80
2021,04,11,09,21,13.60
2021,04,11,09,22,11.50
2021,04,11,09,23,9.40
2021,04,11,09,24,9.70
2021,04,11,09,25,8.80
2021,04,11,09,26,17.30
2021,04,11,09,27,15.40
2021,04,11,09,28,11.00
2021,04,11,09,29,13.80
2021,04,11,09,30,10.80
2021,04,11,09,31,5.30
2021,04,11,09,32,9.60
2021,04,11,09,33,10.90
2021,04,11,09,34,12.50
2021,04,11,09,35,13.20
2021,04,11,09,36,8.90
2021,04,11,09,37,4.40
2021,04,11,09,38,10.70
2021,04,11,09,39,10.90
2021,04,11,09,40,5.50
2021,04,11,09,41,7.90
2021,04,11,09,42,14.40
2021,04,11,09,43,8.20
2021,04,11,09,44,4.10
2021,04,11,09,45,3.50
2021,04,11,09,46,6.40
2021,04,11,09,47,7.10
2021,04,11,09,48,6.90
2021,04,11,09,49,10.80
2021,04,11,09,50,10.80
2021,04,11,09,51,11.60
2021,04,11,09,52,4.30
2021,04,11,09,53,11.60
2021,04,11,09,54,5.90
2021,04,11,09,55,5.80
2021,04,11,09,56,5.30
2021,04,11,09,57,5.90
2021,04,11,09,58,4.00
2021,04,11,09,59,7.20
2021,04,11,10,00,5.60
2021,04,11,10,01,5.50
2021,04,11,10,02,8.90
2021,04,11,10,03,15.20
2021,04,11,10,04,15.70
2021,04,11,10,05,16.00
2021,04,11,10,06,14.10
2021,04,11,10,07,10.00
2021,04,11,10,08,11.80
2021,04,11,10,09,18.90
2021,04,11,10,10,17.90
2021,04,11,10,11,9.60
2021,04,11,10,12,10.70
2021,04,11,10,13,9.10
2021,04,11,10,14,8.70
2021,04,11,10,15,11.60
2021,04,11,10,16,16.40
2021,04,11,10,17,15.10
2021,04,11,10,18,21.20
2021,04,11,10,19,13.40
2021,04,11,10,20,9.20
2021,04,11,10,21,11.70
2021,04,11,10,22,9.50
2021,04,11,10,23,13.20
2021,04,11,10,24,12.10
2021,04,11,10,25,13.90
2021,04,11,10,26,7.70
2021,04,11,10,27,1.00
2021,04,11,10,28,3.00
2021,04,11,10,29,1.10
2021,04,11,10,30,9.40
2021,04,11,10,31,9.70
2021,04,11,10,32,7.90
2021,04,11,10,33,8.20
2021,04,11,10,34,8.90
2021,04,11,10,35,15.40
2021,04,11,10,36,17.30
2021,04,11,10,37,16.70
2021,04,11,10,38,11.60
2021,04,11,10,39,6.00
2021,04,11,10,40,3.50
2021,04,11,10,41,7.00
2021,04,11,10,42,14.50
2021,04,11,10,43,11.40
2021,04,11,10,44,10.30
2021,04,11,10,45,8.50
2021,04,11,10,46,7.30
2021,04,11,10,47,17.20
2021,04,11,10,48,16.20
2021,04,11,10,49,16.40
2021,04,11,10,50,15.50
2021,04,11,10,51,14.70
2021,04,11,10,52,15.40
2021,04,11,10,53,19.70
2021,04,11,10,54,18.30
2021,04,11,10,55,14.20
2021,04,11,10,56,15.90
2021,04,11,10,57,20.30
2021,04,11,10,58,15.20
2021,04,11,10,59,15.00
2021,04,11,11,00,16.80
2021,04,11,11,01,10.90
2021,04,11,11,02,12.30
2021,04,11,11,03,8.30
2021,04,11,11,04,11.90
2021,04,11,11,05,12.70
2021,04,11,11,06,12.50
2021,04,11,11,07,9.10
2021,04,11,11,08,13.30
2021,04,11,11,09,14.10
2021,04,11,11,10,8.50
2021,04,11,11,11,9.30
2021,04,11,11,12,15.40
2021,04,11,11,13,20.80
2021,04,11,11,14,15.30
2021,04,11,11,15,18.00
2021,04,11,11,16,16.00
2021,04,11,11,17,12.10
2021,04,11,11,18,16.00
2021,04,11,11,19,14.40
2021,04,11,11,20,12.60
2021,04,11,11,21,12.00
2021,04,11,11,22,17.90
2021,04,11,11,23,16.50
2021,04,11,11,24,15.20
2021,04,11,11,25,10.70
2021,04,11,11,26,14.50
2021,04,11,11,27,17.00
2021,04,11,11,28,18.80
2021,04,11,11,29,18.70
2021,04,11,11,30,16.20
2021,04,11,11,31,17.50
2021,04,11,11,32,19.40
2021,04,11,11,33,16.70
2021,04,11,11,34,16.70
2021,04,11,11,35,18.00
2021,04,11,11,36,15.30
2021,04,11,11,37,14.90
2021,04,11,11,38,18.70
2021,04,11,11,39,12.90
2021,04,11,11,40,12.70
2021,04,11,11,41,21.30
2021,04,11,11,42,18.20
2021,04,11,11,43,21.30
2021,04,11,11,44,19.40
2021,04,11,11,45,13.10
2021,04,11,11,46,17.90
2021,04,11,11,47,19.80
2021,04,11,11,48,14.50
2021,04,11,11,49,15.70
2021,04,11,11,50,15.00
2021,04,11,11,51,15.10
2021,04,11,11,52,19.50
2021,04,11,11,53,14.50
2021,04,11,11,54,14.40
2021,04,11,11,55,15.20
2021,04,11,11,56,16.10
2021,04,11,11,57,19.30
2021,04,11,11,58,15.20
2021,04,11,11,59,17.40
2021,04,11,12,00,19.10
2021,04,11,12,01,14.80
2021,04,11,12,02,11.90
2021,04,11,12,03,9.90
2021,04,11,12,04,13.50
2021,04,11,12,05,8.90
2021,04,11,12,06,16.60
2021,04,11,12,07,11.80
2021,04,11,12,08,16.00
2021,04,11,12,09,20.30
2021,04,11,12,10,22.60
2021,04,11,12,11,16.40
2021,04,11,12,12,12.10
2021,04,11,12,13,15.90
2021,04,11,12,14,22.10
2021,04,11,12,15,12.30
2021,04,11,12,16,16.90
2021,04,11,12,17,16.70
2021,04,11,12,18,20.80
2021,04,11,12,19,19.00
2021,04,11,12,20,14.70
2021,04,11,12,21,16.80
2021,04,11,12,22,19.30
2021,04,11,12,23,16.50
2021,04,11,12,24,14.40
2021,04,11,12,25,13.20
2021,04,11,12,26,18.00
2021,04,11,12,27,18.50
2021,04,11,12,28,16.50
2021,04,11,12,29,17.00
2021,04,11,12,30,12.60
2021,04,11,12,31,16.00
2021,04,11,12,32,15.40
2021,04,11,12,33,17.00
2021,04,11,12,34,15.90
2021,04,11,12,35,14.80
2021,04,11,12,36,18.00
2021,04,11,12,37,21.40
2021,04,11,12,38,15.40
2021,04,11,12,39,5.20
2021,04,11,12,40,4.50
2021,04,11,12,41,6.90
2021,04,11,12,42,17.30
2021,04,11,12,43,14.70
2021,04,11,12,44,7.80
2021,04,11,12,45,17.80
2021,04,11,12,46,14.00
2021,04,11,12,47,13.50
2021,04,11,12,48,10.80
2021,04,11,12,49,13.50
2021,04,11,12,50,17.60
2021,04,11,12,51,18.50
2021,04,11,12,52,12.10
2021,04,11,12,53,20.50
2021,04,11,12,54,20.50
2021,04,11,12,55,16.40
2021,04,11,12,56,17.60
2021,04,11,12,57,13.80
2021,04,11,12,58,12.80
2021,04,11,12,59,22.10
2021,04,11,13,00,18.20
2021,04,11,13,01,14.80
2021,04,11,13,02,20.50
2021,04,11,13,03,12.20
2021,04,11,13,04,13.40
2021,04,11,13,05,19.10
2021,04,11,13,06,11.00
2021,04,11,13,07,16.70
2021,04,11,13,08,15.90
2021,04,11,13,09,9.50
2021,04,11,13,10,11.10
2021,04,11,13,11,17.10
2021,04,11,13,12,17.00
2021,04,11,13,13,13.80
2021,04,11,13,14,17.60
2021,04,11,13,15,17.50
2021,04,11,13,16,16.00
2021,04,11,13,17,18.80
2021,04,11,13,18,21.60
2021,04,11,13,19,18.30
2021,04,11,13,20,13.60
2021,04,11,13,21,21.40
2021,04,11,13,22,13.70
2021,04,11,13,23,20.10
2021,04,11,13,24,19.50
2021,04,11,13,25,14.80
2021,04,11,13,26,18.60
2021,04,11,13,27,19.30
2021,04,11,13,28,16.20
2021,04,11,13,29,14.40
2021,04,11,13,30,19.00
2021,04,11,13,31,19.00
2021,04,11,13,32,18.00
2021,04,11,13,33,16.90
2021,04,11,13,34,16.10
2021,04,11,13,35,13.50
2021,04,11,13,36,18.10
2021,04,11,13,37,12.60
2021,04,11,13,38,18.30
2021,04,11,13,39,15.90
2021,04,11,13,40,13.40
2021,04,11,13,41,20.90
2021,04,11,13,42,18.20
2021,04,11,13,43,13.20
2021,04,11,13,44,14.00
2021,04,11,13,45,15.50
2021,04,11,13,46,18.70
2021,04,11,13,47,18.70
2021,04,11,13,48,20.70
2021,04,11,13,49,17.80
2021,04,11,13,50,15.90
2021,04,11,13,51,14.80
2021,04,11,13,52,11.60
2021,04,11,13,53,13.50
2021,04,11,13,54,13.40
2021,04,11,13,55,16.50
2021,04,11,13,56,19.70
2021,04,11,13,57,16.90
2021,04,11,13,58,15.70
2021,04,11,13,59,10.40
2021,04,11,14,00,14.10
2021,04,11,14,01,15.90
2021,04,11,14,02,16.50
2021,04,11,14,03,15.90
2021,04,11,14,04,14.90
2021,04,11,14,05,13.40
2021,04,11,14,06,10.10
2021,04,11,14,07,11.70
2021,04,11,14,08,13.40
2021,04,11,14,09,15.30
2021,04,11,14,10,12.00
2021,04,11,14,11,19.90
2021,04,11,14,12,11.30
2021,04,11,14,13,11.90
2021,04,11,14,14,14.40
2021,04,11,14,15,13.10
2021,04,11,14,16,10.60
2021,04,11,14,17,13.80
2021,04,11,14,18,16.70
2021,04,11,14,19,12.20
2021,04,11,14,20,19.00
2021,04,11,14,21,13.90
2021,04,11,14,22,12.90
2021,04,11,14,23,11.40
2021,04,11,14,24,7.40
2021,04,11,14,25,12.20
2021,04,11,14,26,13.20
2021,04,11,14,27,11.30
2021,04,11,14,28,18.70
2021,04,11,14,29,14.60
2021,04,11,14,30,12.90
2021,04,11,14,31,17.90
2021,04,11,14,32,12.30
2021,04,11,14,33,16.80
2021,04,11,14,34,14.90
2021,04,11,14,35,13.10
2021,04,11,14,36,14.70
2021,04,11,14,37,11.80
2021,04,11,14,38,13.90
2021,04,11,14,39,15.70
2021,04,11,14,40,18.70
2021,04,11,14,41,14.90
2021,04,11,14,42,12.30
2021,04,11,14,43,14.40
2021,04,11,14,44,6.90
2021,04,11,14,45,4.80
2021,04,11,14,46,11.80
2021,04,11,14,47,8.50
2021,04,11,14,48,13.70
2021,04,11,14,49,8.30
2021,04,11,14,50,8.20
2021,04,11,14,51,14.20
2021,04,11,14,52,9.40
2021,04,11,14,53,11.10
2021,04,11,14,54,9.70
2021,04,11,14,55,15.40
2021,04,11,14,56,9.80
2021,04,11,14,57,7.20
2021,04,11,14,58,5.40
2021,04,11,14,59,11.30
2021,04,11,15,00,11.10
2021,04,11,15,01,15.60
2021,04,11,15,02,9.00
2021,04,11,15,03,17.70
2021,04,11,15,04,14.70
2021,04,11,15,05,11.00
2021,04,11,15,06,13.10
2021,04,11,15,07,9.80
2021,04,11,15,08,8.50
2021,04,11,15,09,6.90
2021,04,11,15,10,14.00
2021,04,11,15,11,13.40
2021,04,11,15,12,6.40
2021,04,11,15,13,7.90
2021,04,11,15,14,12.50
2021,04,11,15,15,9.20
2021,04,11,15,16,16.60
2021,04,11,15,17,16.40
2021,04,11,15,18,14.90
2021,04,11,15,19,13.90
2021,04,11,15,20,10.10
2021,04,11,15,21,14.80
2021,04,11,15,22,15.30
2021,04,11,15,23,12.90
2021,04,11,15,24,15.30
2021,04,11,15,25,12.00
2021,04,11,15,26,9.10
2021,04,11,15,27,12.20
2021,04,11,15,28,14.80
2021,04,11,15,29,11.90
2021,04,11,15,30,9.90
2021,04,11,15,31,14.50
2021,04,11,15,32,11.50
2021,04,11,15,33,14.80
2021,04,11,15,34,7.50
2021,04,11,15,35,8.40
2021,04,11,15,36,7.60
2021,04,11,15,37,8.20
2021,04,11,15,38,5.70
2021,04,11,15,39,8.50
2021,04,11,15,40,5.90
2021,04,11,15,41,8.80
2021,04,11,15,42,13.50
2021,04,11,15,43,15.00
2021,04,11,15,44,14.90
2021,04,11,15,45,14.80
2021,04,11,15,46,14.10
2021,04,11,15,47,13.40
2021,04,11,15,48,15.00
2021,04,11,15,49,13.50
2021,04,11,15,50,9.40
2021,04,11,15,51,9.70
2021,04,11,15,52,13.90
2021,04,11,15,53,12.70
2021,04,11,15,54,11.10
2021,04,11,15,55,12.90
2021,04,11,15,56,12.80
2021,04,11,15,57,10.90
2021,04,11,15,58,12.60
2021,04,11,15,59,14.70
2021,04,11,16,00,12.10
2021,04,11,16,01,8.80
2021,04,11,16,02,9.50
2021,04,11,16,03,11.40
2021,04,11,16,04,11.60
2021,04,11,16,05,15.10
2021,04,11,16,06,10.00
2021,04,11,16,07,11.10
2021,04,11,16,08,16.50
2021,04,11,16,09,15.00
2021,04,11,16,10,12.80
2021,04,11,16,11,13.00
2021,04,11,16,12,8.80
2021,04,11,16,13,12.70
2021,04,11,16,14,13.40
2021,04,11,16,15,10.70
2021,04,11,16,16,8.60
2021,04,11,16,17,13.30
2021,04,11,16,18,7.80
2021,04,11,16,19,10.30
2021,04,11,16,20,10.60
2021,04,11,16,21,10.20
2021,04,11,16,22,4.10
2021,04,11,16,23,7.10
2021,04,11,16,24,4.90
2021,04,11,16,25,3.90
2021,04,11,16,26,7.40
2021,04,11,16,27,4.10
2021,04,11,16,28,6.70
2021,04,11,16,29,11.10
2021,04,11,16,30,14.90
2021,04,11,16,31,8.00
2021,04,11,16,32,12.10
2021,04,11,16,33,12.90
2021,04,11,16,34,11.50
2021,04,11,16,35,11.70
2021,04,11,16,36,11.90
2021,04,11,16,37,12.30
2021,04,11,16,38,9.70
2021,04,11,16,39,10.40
2021,04,11,16,40,9.00
2021,04,11,16,41,11.20
2021,04,11,16,42,6.30
2021,04,11,16,43,9.30
2021,04,11,16,44,8.10
2021,04,11,16,45,8.90
2021,04,11,16,46,10.40
2021,04,11,16,47,9.50
2021,04,11,16,48,11.70
2021,04,11,16,49,12.80
2021,04,11,16,50,8.40
2021,04,11,16,51,7.90
2021,04,11,16,52,9.60
2021,04,11,16,53,8.50
2021,04,11,16,54,12.20
2021,04,11,16,55,8.50
2021,04,11,16,56,8.40
2021,04,11,16,57,7.40
2021,04,11,16,58,12.80
2021,04,11,16,59,9.20
2021,04,11,17,00,8.00
2021,04,11,17,01,10.10
2021,04,11,17,02,12.90
2021,04,11,17,03,10.70
2021,04,11,17,04,8.40
2021,04,11,17,05,7.70
2021,04,11,17,06,6.90
2021,04,11,17,07,9.70
2021,04,11,17,08,13.40
2021,04,11,17,09,8.40
2021,04,11,17,10,7.60
2021,04,11,17,11,10.30
2021,04,11,17,12,10.10
2021,04,11,17,13,11.00
2021,04,11,17,14,7.80
2021,04,11,17,15,7.60
2021,04,11,17,16,5.30
2021,04,11,17,17,10.00
2021,04,11,17,18,10.80
2021,04,11,17,19,13.50
2021,04,11,17,20,12.30
2021,04,11,17,21,12.30
2021,04,11,17,22,6.70
2021,04,11,17,23,7.80
2021,04,11,17,24,9.00
2021,04,11,17,25,10.40
2021,04,11,17,26,10.00
2021,04,11,17,27,12.60
2021,04,11,17,28,11.90
2021,04,11,17,29,12.50
2021,04,11,17,30,3.80
2021,04,11,17,31,6.10
2021,04,11,17,32,12.00
2021,04,11,17,33,11.70
2021,04,11,17,34,9.90
2021,04,11,17,35,10.40
2021,04,11,17,36,11.90
2021,04,11,17,37,11.70
2021,04,11,17,38,16.30
2021,04,11,17,39,11.30
2021,04,11,17,40,14.10
2021,04,11,17,41,17.30
2021,04,11,17,42,13.40
2021,04,11,17,43,13.50
2021,04,11,17,44,12.70
2021,04,11,17,45,10.30